DW7516 Weather Reports


Display with metric or nautical units.
time (UTC)temp
F
wind
direction
speed
MPH
gust
MPH
rain 1hr
in
rain 24hr
in
rain mn
in
humidity
%
barometer
mb
20181121031609 59 112 0.0 0.0 0.00 0.00 0.00 69 1014.9
20181121031108 59 112 0.0 1.0 0.00 0.00 0.00 69 1015.1
20181121030609 60 112 0.0 1.0 0.00 0.00 0.00 69 1015.2
20181121030110 60 112 1.0 3.0 0.00 0.00 0.00 69 1015.1
20181121024609 59 112 2.0 3.0 0.00 0.00 0.00 69 1014.7
20181121024108 60 112 2.0 2.0 0.00 0.00 0.00 69 1014.9
20181121023608 60 112 0.0 1.0 0.00 0.00 0.00 69 1014.9
20181121023108 60 112 1.0 3.0 0.00 0.00 0.00 69 1015.0
20181121021608 60 90 2.0 5.0 0.00 0.00 0.00 69 1014.8
20181121021109 59 90 3.0 6.0 0.00 0.00 0.00 68 1014.7
20181121020608 59 90 3.0 5.0 0.00 0.00 0.00 68 1014.8
20181121020108 59 90 3.0 5.0 0.00 0.00 0.00 67 1015.0
20181121014611 60 112 2.0 5.0 0.00 0.00 0.00 66 1014.9
20181121014108 60 112 3.0 5.0 0.00 0.00 0.00 66 1014.9
20181121013608 60 112 2.0 3.0 0.00 0.00 0.00 66 1015.0
20181121013107 59 112 2.0 3.0 0.00 0.00 0.00 66 1015.3
20181121011108 60 112 1.0 1.0 0.00 0.00 0.00 64 1015.4
20181121010608 60 112 0.0 1.0 0.00 0.00 0.00 64 1015.6
20181121010107 60 112 0.0 2.0 0.00 0.00 0.00 65 1015.9
20181121004612 60 112 0.0 0.0 0.00 0.00 0.00 64 1016.0
20181121004108 60 112 0.0 1.0 0.00 0.00 0.00 64 1015.6
20181121003610 60 112 1.0 2.0 0.00 0.00 0.00 63 1015.6
20181121003109 60 112 1.0 2.0 0.00 0.00 0.00 63 1015.7
20181121001608 61 112 1.0 1.0 0.00 0.00 0.00 62 1015.8
20181121001110 61 112 1.0 1.0 0.00 0.00 0.00 62 1016.0
20181121000608 61 112 0.0 2.0 0.00 0.00 0.00 62 1015.9
20181121000111 61 112 1.0 2.0 0.00 0.00 0.00 62 1015.8
20181120234610 61 112 2.0 3.0 0.00 0.00 0.00 61 1016.1
20181120234108 61 112 1.0 2.0 0.00 0.00 0.00 61 1016.1
20181120233608 61 112 1.0 3.0 0.00 0.00 0.00 61 1015.8
20181120233108 61 112 2.0 2.0 0.00 0.00 0.00 61 1015.7
20181120231608 61 112 1.0 2.0 0.00 0.00 0.00 62 1016.2
20181120231108 61 112 2.0 2.0 0.00 0.00 0.00 62 1015.9
20181120230608 61 112 1.0 2.0 0.00 0.00 0.00 62 1016.1
20181120230110 61 112 2.0 5.0 0.00 0.00 0.00 62 1016.4
20181120224611 61 112 1.0 2.0 0.00 0.00 0.00 62 1016.4
20181120224109 61 112 1.0 3.0 0.00 0.00 0.00 62 1016.2
20181120223608 61 112 1.0 3.0 0.00 0.00 0.00 63 1016.2
20181120223109 61 112 1.0 3.0 0.00 0.00 0.00 63 1016.3
20181120221612 61 112 3.0 3.0 0.00 0.00 0.00 64 1016.6
20181120221110 60 112 2.0 3.0 0.00 0.00 0.00 65 1016.5
20181120220612 60 112 2.0 5.0 0.00 0.00 0.00 65 1016.4
20181120220109 60 135 2.0 3.0 0.00 0.00 0.00 65 1016.7
20181120214609 61 135 1.0 2.0 0.00 0.00 0.00 65 1016.5
20181120214109 61 135 1.0 2.0 0.00 0.00 0.00 65 1016.6
20181120213615 61 135 1.0 2.0 0.00 0.00 0.00 65 1016.7
20181120213110 61 135 2.0 3.0 0.00 0.00 0.00 65 1016.7
20181120211607 61 135 3.0 3.0 0.00 0.00 0.00 65 1016.7
20181120211112 61 135 1.0 2.0 0.00 0.00 0.00 65 1017.0
20181120210608 61 135 2.0 3.0 0.00 0.00 0.00 65 1016.7
20181120210111 61 135 2.0 3.0 0.00 0.00 0.00 65 1016.8
20181120204610 61 135 2.0 3.0 0.00 0.00 0.00 66 1017.0
20181120204108 61 135 2.0 3.0 0.00 0.00 0.00 66 1017.1
20181120203612 61 135 1.0 2.0 0.00 0.00 0.00 66 1016.7
20181120203112 61 135 1.0 2.0 0.00 0.00 0.00 66 1016.8
20181120201613 61 135 1.0 2.0 0.00 0.00 0.00 66 1017.3
20181120201109 61 135 2.0 2.0 0.00 0.00 0.00 66 1017.0
20181120200608 61 135 1.0 2.0 0.00 0.00 0.00 66 1017.1
20181120200108 61 135 1.0 2.0 0.00 0.00 0.00 66 1017.2
20181120194608 61 135 1.0 2.0 0.00 0.00 0.00 67 1017.3
20181120194112 60 135 2.0 2.0 0.00 0.00 0.00 68 1017.2
20181120193608 60 135 1.0 2.0 0.00 0.00 0.00 68 1017.0
20181120193107 60 135 2.0 3.0 0.00 0.00 0.00 68 1017.0
20181120190109 61 135 1.0 2.0 0.00 0.00 0.00 70 1017.1
20181120184607 60 135 1.0 2.0 0.00 0.00 0.00 71 1017.4
20181120184110 60 135 1.0 2.0 0.00 0.00 0.00 71 1017.3
20181120183608 60 135 0.0 2.0 0.00 0.00 0.00 71 1017.3
20181120183107 60 135 1.0 2.0 0.00 0.00 0.00 72 1017.3
20181120181608 60 135 1.0 2.0 0.00 0.00 0.00 72 1017.2
20181120181107 60 135 1.0 1.0 0.00 0.00 0.00 73 1017.1
20181120180609 60 135 0.0 0.0 0.00 0.00 0.00 73 1017.2
20181120180108 60 135 0.0 2.0 0.00 0.00 0.00 73 1017.4
20181120174607 60 135 1.0 2.0 0.00 0.00 0.00 74 1017.2
20181120174108 60 135 1.0 2.0 0.00 0.00 0.00 74 1017.3
20181120173607 60 135 1.0 2.0 0.00 0.00 0.00 74 1017.0
20181120173107 60 135 2.0 5.0 0.00 0.00 0.00 74 1017.2
20181120171608 60 142 3.0 5.0 0.00 0.00 0.00 73 1017.2
20181120171107 61 225 3.0 5.0 0.00 0.00 0.00 73 1017.4
20181120170608 61 225 2.0 2.0 0.00 0.00 0.00 73 1017.5
20181120170108 61 225 2.0 2.0 0.00 0.00 0.00 73 1017.2
20181120164608 61 225 1.0 2.0 0.00 0.00 0.00 73 1017.2
20181120164107 60 225 1.0 1.0 0.00 0.00 0.00 73 1017.1
20181120163707 60 225 2.0 2.0 0.00 0.00 0.00 73 1017.2
20181120163107 60 225 2.0 2.0 0.00 0.00 0.00 73 1017.5
20181120161608 61 225 1.0 2.0 0.00 0.00 0.00 73 1017.2
20181120161111 61 225 0.0 0.0 0.00 0.00 0.00 73 1017.4
20181120160608 61 225 0.0 0.0 0.00 0.00 0.00 74 1017.5
20181120160110 61 225 0.0 2.0 0.00 0.00 0.00 74 1017.4
20181120154608 61 225 1.0 2.0 0.00 0.00 0.00 75 1017.2
20181120154107 61 225 2.0 2.0 0.00 0.00 0.00 75 1017.4
20181120153607 61 225 1.0 2.0 0.00 0.00 0.00 75 1017.4
20181120153112 61 225 2.0 3.0 0.00 0.00 0.00 76 1017.4
20181120151609 61 225 2.0 2.0 0.00 0.00 0.00 77 1017.2
20181120151108 61 225 2.0 2.0 0.00 0.00 0.00 78 1017.2
20181120150611 61 225 2.0 2.0 0.00 0.00 0.00 80 1017.1
20181120150108 61 225 1.0 2.0 0.00 0.00 0.00 83 1017.1
20181120144607 60 225 1.0 1.0 0.00 0.00 0.00 87 1017.4
20181120144110 60 225 0.0 1.0 0.00 0.00 0.00 86 1017.3
20181120143607 60 225 1.0 2.0 0.00 0.00 0.00 86 1017.3
20181120143111 60 225 0.0 1.0 0.00 0.00 0.00 85 1017.1
20181120141609 61 225 0.0 0.0 0.00 0.00 0.00 85 1017.1
20181120141107 61 225 0.0 0.0 0.00 0.00 0.00 85 1017.3
20181120140607 61 225 0.0 1.0 0.00 0.00 0.00 85 1017.4
20181120140107 61 225 1.0 1.0 0.00 0.00 0.00 85 1017.1
20181120134607 61 225 0.0 1.0 0.00 0.00 0.00 84 1017.4
20181120134107 61 225 1.0 2.0 0.00 0.00 0.00 84 1017.3
20181120133613 62 225 1.0 1.0 0.00 0.00 0.00 84 1017.4
20181120133107 62 225 1.0 2.0 0.00 0.00 0.00 83 1016.8
20181120131608 62 225 2.0 3.0 0.00 0.00 0.00 81 1016.9
20181120131107 63 248 2.0 2.0 0.00 0.00 0.00 80 1016.9
20181120130609 63 248 1.0 3.0 0.00 0.00 0.00 79 1016.9
20181120130108 64 248 1.0 3.0 0.00 0.00 0.00 78 1016.9
20181120124708 65 270 1.0 3.0 0.00 0.00 0.00 75 1017.1
20181120124107 66 270 2.0 3.0 0.00 0.00 0.00 73 1016.8
20181120123609 67 270 2.0 3.0 0.00 0.00 0.00 71 1017.1
20181120123107 67 270 3.0 6.0 0.00 0.00 0.00 71 1016.8
20181120121611 67 248 3.0 6.0 0.00 0.00 0.00 72 1017.0
20181120121108 67 225 2.0 5.0 0.00 0.00 0.00 72 1017.1
20181120120608 67 223 4.0 5.0 0.00 0.00 0.00 72 1017.0
20181120120107 67 225 2.0 7.0 0.00 0.00 0.00 71 1016.7
20181120114607 68 180 3.0 5.0 0.00 0.00 0.00 70 1017.1
20181120114107 68 248 3.0 6.0 0.00 0.00 0.00 67 1017.1
20181120113609 69 261 1.0 5.0 0.00 0.00 0.00 67 1017.2
20181120113110 68 270 1.0 6.0 0.00 0.00 0.00 68 1017.0
20181120111608 68 270 3.0 6.0 0.00 0.00 0.00 65 1017.3
20181120111108 68 233 5.0 6.0 0.00 0.00 0.00 63 1017.1
20181120110609 68 248 3.0 5.0 0.00 0.00 0.00 62 1017.1
20181120110107 68 225 3.0 5.0 0.00 0.00 0.00 62 1017.1
20181120104612 67 218 3.0 5.0 0.00 0.00 0.00 65 1017.4
20181120104109 68 204 3.0 7.0 0.00 0.00 0.00 64 1017.5
20181120103608 68 180 5.0 6.0 0.00 0.00 0.00 64 1017.6
20181120103108 67 202 5.0 6.0 0.00 0.00 0.00 65 1017.7
20181120101613 67 202 3.0 6.0 0.00 0.00 0.00 65 1017.8
20181120101106 67 225 3.0 6.0 0.00 0.00 0.00 65 1017.6
20181120100607 68 202 5.0 6.0 0.00 0.00 0.00 65 1017.5
20181120100107 68 238 3.0 7.0 0.00 0.00 0.00 64 1017.7
20181120094607 67 225 3.0 6.0 0.00 0.00 0.00 63 1017.8
20181120094110 68 225 3.0 5.0 0.00 0.00 0.00 61 1018.0
20181120093607 69 202 2.0 6.0 0.00 0.00 0.00 59 1017.6
20181120093108 69 210 3.0 6.0 0.00 0.00 0.00 59 1017.7
20181120091708 69 248 2.0 5.0 0.00 0.00 0.00 58 1017.8
20181120091107 68 248 3.0 5.0 0.00 0.00 0.00 59 1017.8
20181120090625 68 248 3.0 6.0 0.00 0.00 0.00 58 1018.2
20181120090110 68 225 3.0 5.0 0.00 0.00 0.00 58 1018.0
20181120084609 68 202 3.0 5.0 0.00 0.00 0.00 56 1018.0
20181120083106 69 180 1.0 2.0 0.00 0.00 0.00 56 1018.4
20181120081607 68 180 1.0 2.0 0.00 0.00 0.00 57 1018.1
20181120081107 67 180 1.0 3.0 0.00 0.00 0.00 58 1018.4
20181120080608 67 180 2.0 3.0 0.00 0.00 0.00 58 1018.5
20181120080109 67 180 2.0 5.0 0.00 0.00 0.00 57 1018.4
20181120074607 67 202 2.0 3.0 0.00 0.00 0.00 57 1018.4
20181120074109 68 315 2.0 3.0 0.00 0.00 0.00 57 1018.6
20181120073607 67 315 0.0 1.0 0.00 0.00 0.00 58 1018.7
20181120073110 67 315 2.0 3.0 0.00 0.00 0.00 57 1018.7
20181120071607 67 338 3.0 5.0 0.00 0.00 0.00 56 1018.7
20181120071106 67 338 2.0 2.0 0.00 0.00 0.00 56 1018.4
20181120070607 67 338 1.0 3.0 0.00 0.00 0.00 56 1018.4
20181120070107 67 45 1.0 2.0 0.00 0.00 0.00 56 1018.5
20181120064609 67 45 1.0 1.0 0.00 0.00 0.00 56 1018.4
20181120064106 66 45 1.0 2.0 0.00 0.00 0.00 56 1018.4
20181120063607 66 45 1.0 2.0 0.00 0.00 0.00 56 1018.4
20181120063107 66 45 2.0 2.0 0.00 0.00 0.00 55 1018.2
20181120061609 68 45 1.0 1.0 0.00 0.00 0.00 55 1018.0
20181120061111 68 45 0.0 0.0 0.00 0.00 0.00 56 1018.1
20181120060606 67 45 0.0 0.0 0.00 0.00 0.00 57 1018.1
20181120060109 67 45 0.0 0.0 0.00 0.00 0.00 57 1018.0
20181120054607 65 45 0.0 0.0 0.00 0.00 0.00 59 1017.8
20181120054108 64 45 0.0 0.0 0.00 0.00 0.00 60 1017.8
20181120053607 63 45 0.0 0.0 0.00 0.00 0.00 60 1017.8
20181120053106 63 45 0.0 3.0 0.00 0.00 0.00 60 1017.6
20181120051607 61 41 2.0 3.0 0.00 0.00 0.00 61 1017.8
20181120051108 60 22 3.0 3.0 0.00 0.00 0.00 62 1017.7
20181120050606 60 22 2.0 3.0 0.00 0.00 0.00 62 1017.8
20181120050106 59 0 2.0 5.0 0.00 0.00 0.00 64 1017.8
20181120044607 58 0 3.0 3.0 0.00 0.00 0.00 66 1017.6
20181120044106 57 0 3.0 3.0 0.00 0.00 0.00 66 1017.8
20181120043606 57 0 2.0 3.0 0.00 0.00 0.00 66 1017.7
20181120043105 57 0 2.0 2.0 0.00 0.00 0.00 66 1017.7
20181120041606 57 0 2.0 3.0 0.00 0.00 0.00 66 1017.6
20181120041106 57 0 2.0 3.0 0.00 0.00 0.00 66 1017.4
20181120040606 57 0 2.0 5.0 0.00 0.00 0.00 66 1017.5
20181120040108 57 0 3.0 5.0 0.00 0.00 0.00 65 1017.3
20181120034606 57 0 3.0 5.0 0.00 0.00 0.00 65 1017.4
20181120034107 57 0 5.0 5.0 0.00 0.00 0.00 65 1017.3
20181120033607 57 0 3.0 5.0 0.00 0.00 0.00 66 1017.3
20181120033107 57 0 3.0 3.0 0.00 0.00 0.00 65 1017.3